Terminal Aerodrome Forecast
Issued by NWS Knoxville/Tri Cities, TN

Home | Current Version | Previous Version | Text Only | Print | Product List | Glossary On
Versions: 1 2 3 4 5 6 7 8 9 10 11 12 13 14 15 16 17 18 19 20 21 22 23 24 25 26 27 28 29 30 31 32 33 34 35
000
FTUS44 KMRX 280520
TAFCHA
TAF
KCHA 280520Z 2806/2906 00000KT P6SM SCT250
     FM280900 00000KT 4SM BR SCT008
     FM281200 14004KT 5SM BR BKN008
     FM281500 17009KT P6SM BKN050
     FM281800 17010G18KT P6SM BKN100
     FM290200 16003KT P6SM FEW250=

USA.gov is the U.S. government's official web portal to all federal, state and local government web resources and services.